Location: Unspecified
(40.9447°N, 78.9903°W)
Time: 14:27:05
(UTC-04:00)

Cosmos 1674 - Pass Details

Date: 26 July 2021
Orbit: 491 x 516 km, 82.5° (Epoch: 23 September)

Event Time Altitude Azimuth Distance (km) Brightness Sun altitude
Rises 04:25:45 0° 353° (N) 2,647 6.9 -16.2°
Reaches altitude 10° 04:27:54 10° 355° (N) 1,755 5.9 -16.0°
Maximum altitude 04:31:46 78° 82° (E) 533 2.8 -15.4°
Enters shadow 04:35:34 10° 169° (S) 1,733 5.0 -14.9°
